Location: *
(60.1759°S, 155.0663°W)
Time: 05:50:17
(UTC+00:00)

Cosmos 2237 Rocket - Pass Details

Date: 17 September 2019
Orbit: 833 x 852 km, 71.0° (Epoch: 19 October)

Event Time Altitude Azimuth Distance (km) Brightness Sun altitude
Exits shadow 12:09:50 33° 239° (WSW) 1,407 3.3 -28.0°
Maximum altitude 12:11:16 38° 207° (SSW) 1,281 3.3 -27.9°
Drops below altitude 10° 12:16:36 10° 138° (SE) 2,490 5.6 -27.6°
Sets 12:19:15 0° 130° (SE) 3,425 6.5 -27.4°
